DAL1892 KBOS-KFLL

Flight info

Callsign DAL1892
Flight time 3h 1m
Altitude 38000
Route SSOXS7 SSOXS Q167 RIFLE HEADI Q97 PRMUS CUUDA3
Aircraft A321/M-SDE3FGHIRWY/LB1

Departure

Time 2026-05-06 15:56
Airport Boston Logan International Airport (KBOS)

Arrival

Time 2026-05-06 18:58
Airport Fort Lauderdale Hollywood International Airport (KFLL)
Time Latitude Longitude Altitude Speed Heading
2026-05-06 14:51 42.36483 -71.02310 28 ft 0 kts 81°
2026-05-06 14:52 42.36483 -71.02311 28 ft 0 kts 81°
2026-05-06 14:58 42.36483 -71.02312 26 ft 0 kts 81°
2026-05-06 15:06 42.36483 -71.02313 26 ft 0 kts 81°
2026-05-06 15:13 42.36483 -71.02314 29 ft 0 kts 81°
2026-05-06 15:20 42.36483 -71.02315 29 ft 0 kts 81°
2026-05-06 15:28 42.36483 -71.02316 26 ft 0 kts 81°
2026-05-06 15:33 42.36482 -71.02316 26 ft 0 kts 81°
2026-05-06 15:36 42.36482 -71.02317 26 ft 0 kts 81°
2026-05-06 15:44 42.36481 -71.02326 26 ft 2 kts 77°
2026-05-06 15:44 42.36475 -71.02353 31 ft 3 kts 52°
2026-05-06 15:44 42.36457 -71.02370 29 ft 3 kts
2026-05-06 15:45 42.36444 -71.02372 30 ft 2 kts
2026-05-06 15:47 42.36437 -71.02373 29 ft 2 kts
2026-05-06 15:47 42.36421 -71.02370 30 ft 2 kts 337°
2026-05-06 15:47 42.36405 -71.02361 27 ft 2 kts 314°
2026-05-06 15:47 42.36394 -71.02345 28 ft 1 kts 314°
2026-05-06 15:48 42.36394 -71.02344 27 ft 0 kts 314°
2026-05-06 15:48 42.36394 -71.02345 28 ft 0 kts 311°
2026-05-06 15:48 42.36387 -71.02354 29 ft 3 kts 210°
2026-05-06 15:48 42.36313 -71.02342 26 ft 17 kts 174°
2026-05-06 15:49 42.36188 -71.02349 28 ft 18 kts 183°
2026-05-06 15:49 42.36070 -71.02306 26 ft 18 kts 148°
2026-05-06 15:49 42.35996 -71.02175 27 ft 18 kts 121°
2026-05-06 15:49 42.35926 -71.02018 27 ft 24 kts 121°
2026-05-06 15:50 42.35850 -71.01808 27 ft 25 kts 105°
2026-05-06 15:50 42.35863 -71.01666 26 ft 17 kts 38°
2026-05-06 15:50 42.35978 -71.01606 27 ft 17 kts 20°
2026-05-06 15:50 42.36089 -71.01551 28 ft 18 kts 19°
2026-05-06 15:51 42.36238 -71.01479 28 ft 25 kts 20°
2026-05-06 15:51 42.36398 -71.01402 28 ft 24 kts 20°
2026-05-06 15:51 42.36553 -71.01312 28 ft 24 kts 25°
2026-05-06 15:51 42.36705 -71.01251 27 ft 20 kts 10°
2026-05-06 15:52 42.36829 -71.01283 28 ft 17 kts
2026-05-06 15:52 42.36921 -71.01191 30 ft 18 kts 43°
2026-05-06 15:52 42.37033 -71.01082 26 ft 20 kts 27°
2026-05-06 15:52 42.37185 -71.00982 27 ft 26 kts 26°
2026-05-06 15:53 42.37350 -71.00884 28 ft 25 kts 19°
2026-05-06 15:53 42.37513 -71.00804 27 ft 24 kts 19°
2026-05-06 15:53 42.37668 -71.00730 26 ft 23 kts 19°
2026-05-06 15:53 42.37786 -71.00673 28 ft 14 kts 20°
2026-05-06 15:54 42.37833 -71.00582 26 ft 12 kts 95°
2026-05-06 15:54 42.37813 -71.00484 29 ft 4 kts 107°
2026-05-06 15:54 42.37798 -71.00475 28 ft 3 kts 178°
2026-05-06 15:54 42.37771 -71.00485 27 ft 1 kts 198°
2026-05-06 15:55 42.37760 -71.00490 27 ft 9 kts 198°
2026-05-06 15:56 42.37515 -71.00606 27 ft 80 kts 200°
2026-05-06 15:56 42.36795 -71.00950 30 ft 136 kts 198°
2026-05-06 15:56 42.35856 -71.01418 543 ft 142 kts 200°
2026-05-06 15:56 42.34971 -71.01884 1422 ft 130 kts 194°
2026-05-06 15:57 42.34050 -71.01848 2046 ft 140 kts 168°
2026-05-06 15:57 42.33219 -71.01035 2640 ft 163 kts 140°
2026-05-06 15:57 42.32658 -70.99580 3078 ft 183 kts 131°
2026-05-06 15:57 42.31973 -70.98056 3337 ft 201 kts 135°
2026-05-06 15:58 42.31388 -70.96144 3578 ft 242 kts 112°
2026-05-06 15:58 42.31381 -70.93684 3945 ft 283 kts 87°
2026-05-06 15:58 42.31755 -70.90962 4461 ft 303 kts 86°
2026-05-06 15:58 42.32167 -70.88148 5307 ft 308 kts 85°
2026-05-06 15:59 42.32594 -70.85305 6238 ft 310 kts 85°
2026-05-06 15:59 42.32918 -70.82430 7059 ft 308 kts 96°
2026-05-06 15:59 42.32796 -70.79560 7866 ft 303 kts 110°
2026-05-06 15:59 42.32235 -70.76857 8698 ft 296 kts 123°
2026-05-06 16:00 42.31395 -70.74371 9520 ft 296 kts 127°
2026-05-06 16:00 42.30464 -70.71890 10296 ft 293 kts 134°
2026-05-06 16:00 42.29221 -70.69731 10823 ft 295 kts 146°
2026-05-06 16:00 42.27602 -70.67960 11064 ft 306 kts 158°
2026-05-06 16:01 42.25654 -70.66698 11289 ft 316 kts 169°
2026-05-06 16:01 42.23537 -70.65755 11847 ft 325 kts 169°
2026-05-06 16:01 42.21376 -70.64772 12527 ft 331 kts 169°
2026-05-06 16:01 42.19179 -70.63760 13216 ft 337 kts 168°
2026-05-06 16:02 42.16937 -70.62752 13899 ft 340 kts 172°
2026-05-06 16:02 42.14622 -70.62205 14508 ft 337 kts 182°
2026-05-06 16:02 42.12292 -70.62308 15133 ft 335 kts 193°
2026-05-06 16:02 42.10026 -70.63043 15749 ft 335 kts 202°
2026-05-06 16:03 42.07799 -70.64044 16358 ft 340 kts 201°
2026-05-06 16:03 42.05537 -70.65046 16964 ft 344 kts 201°
2026-05-06 16:03 42.03244 -70.66052 17559 ft 349 kts 201°
2026-05-06 16:03 42.00914 -70.67070 18134 ft 354 kts 201°
2026-05-06 16:04 41.98557 -70.68102 18666 ft 358 kts 201°
2026-05-06 16:04 41.96175 -70.69145 19140 ft 363 kts 201°
2026-05-06 16:04 41.93760 -70.70204 19626 ft 367 kts 201°
2026-05-06 16:04 41.91323 -70.71276 20129 ft 370 kts 201°
2026-05-06 16:05 41.88867 -70.72355 20636 ft 373 kts 202°
2026-05-06 16:05 41.86384 -70.73444 21146 ft 377 kts 202°
2026-05-06 16:05 41.83902 -70.74598 21644 ft 378 kts 206°
2026-05-06 16:05 41.81556 -70.76202 22141 ft 379 kts 212°
2026-05-06 16:06 41.79252 -70.77941 22614 ft 382 kts 212°
2026-05-06 16:06 41.76925 -70.79701 23076 ft 386 kts 213°
2026-05-06 16:06 41.74574 -70.81478 23562 ft 390 kts 213°
2026-05-06 16:06 41.72203 -70.83265 23973 ft 392 kts 213°
2026-05-06 16:07 41.69812 -70.85058 24389 ft 395 kts 213°
2026-05-06 16:07 41.67404 -70.86855 24798 ft 398 kts 213°
2026-05-06 16:07 41.64979 -70.88664 25219 ft 400 kts 214°
2026-05-06 16:07 41.62537 -70.90483 25602 ft 403 kts 214°
2026-05-06 16:08 41.60076 -70.92315 25973 ft 406 kts 214°
2026-05-06 16:08 41.57608 -70.94173 26352 ft 408 kts 216°
2026-05-06 16:08 41.55326 -70.96392 26737 ft 405 kts 225°
2026-05-06 16:08 41.53373 -70.99071 27116 ft 402 kts 234°
2026-05-06 16:09 41.51757 -71.02113 27493 ft 402 kts 239°
2026-05-06 16:09 41.50209 -71.05235 27872 ft 405 kts 239°
2026-05-06 16:09 41.48662 -71.08330 28231 ft 407 kts 239°
2026-05-06 16:09 41.47083 -71.11467 28601 ft 409 kts 239°
2026-05-06 16:10 41.45495 -71.14618 28950 ft 411 kts 239°
2026-05-06 16:10 41.43879 -71.17826 29328 ft 412 kts 239°
2026-05-06 16:10 41.42281 -71.21001 29729 ft 413 kts 239°
2026-05-06 16:10 41.40683 -71.24174 30176 ft 411 kts 239°
2026-05-06 16:11 41.39093 -71.27326 30633 ft 409 kts 239°
2026-05-06 16:11 41.37530 -71.30418 31039 ft 408 kts 240°
2026-05-06 16:11 41.35950 -71.33545 31470 ft 406 kts 240°
2026-05-06 16:11 41.34381 -71.36654 31927 ft 405 kts 240°
2026-05-06 16:12 41.32814 -71.39761 32357 ft 403 kts 240°
2026-05-06 16:12 41.31254 -71.42853 32796 ft 402 kts 240°
2026-05-06 16:12 41.29699 -71.45932 33238 ft 401 kts 240°
2026-05-06 16:12 41.28143 -71.49007 33685 ft 399 kts 240°
2026-05-06 16:13 41.26595 -71.52066 34110 ft 398 kts 240°
2026-05-06 16:13 41.25051 -71.55113 34487 ft 397 kts 241°
2026-05-06 16:13 41.23513 -71.58138 34937 ft 393 kts 241°
2026-05-06 16:13 41.21990 -71.61124 35413 ft 389 kts 242°
2026-05-06 16:14 41.20477 -71.64087 35832 ft 386 kts 242°
2026-05-06 16:14 41.18975 -71.67031 36223 ft 384 kts 243°
2026-05-06 16:14 41.17482 -71.69956 36593 ft 382 kts 243°
2026-05-06 16:14 41.15987 -71.72880 36946 ft 381 kts 243°
2026-05-06 16:15 41.14506 -71.75780 37274 ft 379 kts 244°
2026-05-06 16:15 41.13032 -71.78673 37582 ft 378 kts 244°
2026-05-06 16:15 41.11563 -71.81568 37872 ft 378 kts 245°
2026-05-06 16:15 41.10097 -71.84460 37973 ft 377 kts 245°
2026-05-06 16:16 41.07166 -71.90215 37979 ft 376 kts 244°
2026-05-06 16:16 41.04242 -71.95935 37980 ft 373 kts 245°
2026-05-06 16:17 41.01897 -72.01915 37980 ft 364 kts 252°
2026-05-06 16:17 40.99766 -72.08011 37978 ft 365 kts 252°
2026-05-06 16:18 40.97614 -72.14093 37955 ft 365 kts 252°
2026-05-06 16:18 40.95451 -72.20177 37963 ft 366 kts 252°
2026-05-06 16:19 40.93287 -72.26269 37983 ft 366 kts 252°
2026-05-06 16:19 40.90747 -72.32135 37990 ft 378 kts 239°
2026-05-06 16:20 40.87044 -72.37127 37990 ft 384 kts 235°
2026-05-06 16:20 40.83235 -72.42074 37962 ft 384 kts 235°
2026-05-06 16:21 40.79370 -72.46957 37970 ft 390 kts 231°
2026-05-06 16:21 40.75182 -72.51504 37980 ft 390 kts 231°
2026-05-06 16:22 40.71001 -72.56032 37971 ft 390 kts 231°
2026-05-06 16:22 40.67259 -72.60983 37989 ft 375 kts 240°
2026-05-06 16:23 40.63954 -72.66287 37967 ft 375 kts 240°
2026-05-06 16:23 40.60635 -72.71578 37965 ft 374 kts 240°
2026-05-06 16:24 40.57318 -72.76861 37968 ft 374 kts 240°
2026-05-06 16:24 40.54010 -72.82124 37961 ft 374 kts 240°
2026-05-06 16:25 40.50694 -72.87393 37964 ft 374 kts 240°
2026-05-06 16:25 40.47383 -72.92658 37938 ft 374 kts 241°
2026-05-06 16:26 40.44053 -72.97930 37946 ft 374 kts 240°
2026-05-06 16:26 40.40754 -73.03144 37961 ft 373 kts 240°
2026-05-06 16:27 40.37441 -73.08374 37958 ft 373 kts 240°
2026-05-06 16:27 40.34126 -73.13592 37950 ft 372 kts 240°
2026-05-06 16:28 40.30814 -73.18805 37913 ft 372 kts 241°
2026-05-06 16:28 40.27493 -73.24022 37913 ft 373 kts 241°
2026-05-06 16:29 40.24165 -73.29236 37915 ft 374 kts 241°
2026-05-06 16:29 40.20828 -73.34466 37939 ft 374 kts 240°
2026-05-06 16:30 40.18049 -73.38803 37928 ft 374 kts 240°
2026-05-06 16:30 40.14163 -73.44866 37896 ft 374 kts 242°
2026-05-06 16:31 40.10816 -73.50079 37909 ft 375 kts 241°
2026-05-06 16:31 40.07453 -73.55298 37908 ft 375 kts 241°
2026-05-06 16:32 40.04092 -73.60516 37917 ft 376 kts 241°
2026-05-06 16:32 40.00725 -73.65734 37932 ft 376 kts 241°
2026-05-06 16:33 39.97233 -73.70850 37940 ft 386 kts 233°
2026-05-06 16:33 39.95036 -73.72978 37914 ft 402 kts 224°
2026-05-06 16:34 39.89771 -73.76028 37921 ft 418 kts 216°
2026-05-06 16:34 39.84409 -73.78858 37932 ft 418 kts 216°
2026-05-06 16:35 39.79025 -73.81715 37926 ft 418 kts 216°
2026-05-06 16:35 39.73640 -73.84582 37920 ft 418 kts 216°
2026-05-06 16:36 39.68247 -73.87449 37919 ft 420 kts 216°
2026-05-06 16:36 39.62839 -73.90314 37921 ft 420 kts 216°
2026-05-06 16:37 39.57419 -73.93182 37934 ft 421 kts 216°
2026-05-06 16:37 39.51992 -73.96053 37941 ft 421 kts 216°
2026-05-06 16:38 39.46562 -73.98912 37946 ft 422 kts 216°
2026-05-06 16:38 39.41292 -74.02026 37957 ft 404 kts 225°
2026-05-06 16:38 39.39040 -74.04090 37960 ft 390 kts 233°
2026-05-06 16:39 39.37023 -74.06316 37958 ft 388 kts 233°
2026-05-06 16:39 39.32907 -74.10839 37950 ft 389 kts 233°
2026-05-06 16:40 39.28773 -74.15347 37957 ft 389 kts 233°
2026-05-06 16:40 39.24635 -74.19842 37957 ft 389 kts 233°
2026-05-06 16:41 39.20499 -74.24334 37954 ft 389 kts 233°
2026-05-06 16:41 39.17060 -74.28066 37914 ft 389 kts 233°
2026-05-06 16:42 39.12924 -74.32550 37932 ft 389 kts 233°
2026-05-06 16:42 39.08776 -74.37044 37956 ft 390 kts 233°
2026-05-06 16:43 39.04630 -74.41527 37973 ft 388 kts 233°
2026-05-06 16:43 39.00495 -74.45986 37986 ft 388 kts 233°
2026-05-06 16:44 38.96358 -74.50430 37964 ft 387 kts 233°
2026-05-06 16:44 38.92254 -74.54891 37971 ft 384 kts 235°
2026-05-06 16:45 38.87696 -74.60253 37978 ft 381 kts 236°
2026-05-06 16:45 38.84442 -74.64152 37979 ft 382 kts 236°
2026-05-06 16:46 38.80531 -74.68768 37976 ft 382 kts 236°
2026-05-06 16:46 38.76629 -74.73312 37929 ft 382 kts 236°
2026-05-06 16:47 38.72612 -74.77834 37940 ft 387 kts 233°
2026-05-06 16:47 38.68398 -74.82182 37935 ft 390 kts 232°
2026-05-06 16:48 38.64150 -74.86504 37953 ft 390 kts 232°
2026-05-06 16:48 38.59926 -74.90863 37957 ft 390 kts 233°
2026-05-06 16:49 38.55721 -74.95244 37954 ft 390 kts 233°
2026-05-06 16:49 38.51526 -74.99634 37970 ft 389 kts 233°
2026-05-06 16:50 38.47442 -75.04157 37991 ft 387 kts 235°
2026-05-06 16:50 38.43280 -75.08534 37991 ft 393 kts 231°
2026-05-06 16:51 38.38861 -75.12682 37985 ft 395 kts 230°
2026-05-06 16:51 38.34414 -75.16783 37996 ft 394 kts 230°
2026-05-06 16:52 38.29998 -75.20934 38004 ft 394 kts 231°
2026-05-06 16:52 38.25610 -75.25112 38009 ft 394 kts 231°
2026-05-06 16:53 38.21215 -75.29276 38009 ft 394 kts 230°
2026-05-06 16:53 38.16811 -75.33432 37990 ft 395 kts 230°
2026-05-06 16:54 38.12398 -75.37587 37988 ft 395 kts 230°
2026-05-06 16:54 38.07975 -75.41733 37989 ft 395 kts 230°
2026-05-06 16:55 38.03541 -75.45859 38002 ft 396 kts 229°
2026-05-06 16:55 37.98999 -75.49839 38008 ft 397 kts 228°
2026-05-06 16:56 37.94420 -75.53764 38003 ft 397 kts 228°
2026-05-06 16:56 37.89850 -75.57701 37994 ft 397 kts 228°
2026-05-06 16:57 37.85311 -75.61658 38006 ft 397 kts 228°
2026-05-06 16:57 37.80676 -75.65477 37995 ft 403 kts 225°
2026-05-06 16:58 37.75822 -75.69070 37985 ft 406 kts 224°
2026-05-06 16:58 37.70922 -75.72646 37986 ft 406 kts 224°
2026-05-06 16:59 37.66045 -75.76280 38003 ft 407 kts 224°
2026-05-06 16:59 37.61199 -75.79935 38004 ft 406 kts 224°
2026-05-06 17:00 37.56343 -75.83580 38011 ft 406 kts 224°
2026-05-06 17:00 37.51530 -75.87265 38015 ft 401 kts 226°
2026-05-06 17:01 37.46987 -75.91264 38017 ft 397 kts 229°
2026-05-06 17:01 37.42534 -75.95367 38005 ft 397 kts 229°
2026-05-06 17:02 37.38077 -75.99395 38004 ft 397 kts 228°
2026-05-06 17:02 37.33547 -76.03407 37970 ft 399 kts 227°
2026-05-06 17:03 37.28988 -76.07416 37973 ft 402 kts 227°
2026-05-06 17:03 37.24394 -76.11451 37973 ft 404 kts 227°
2026-05-06 17:04 37.19779 -76.15512 37989 ft 405 kts 227°
2026-05-06 17:04 37.15154 -76.19586 37993 ft 406 kts 227°
2026-05-06 17:05 37.10527 -76.23654 37966 ft 408 kts 227°
2026-05-06 17:05 37.05866 -76.27751 37974 ft 410 kts 227°
2026-05-06 17:06 37.01170 -76.31854 37982 ft 412 kts 227°
2026-05-06 17:06 36.96469 -76.35959 38048 ft 413 kts 227°
2026-05-06 17:07 36.91756 -76.40069 38019 ft 413 kts 227°
2026-05-06 17:07 36.87043 -76.44182 38002 ft 415 kts 227°
2026-05-06 17:08 36.82284 -76.48311 38010 ft 416 kts 227°
2026-05-06 17:08 36.77528 -76.52445 38051 ft 416 kts 227°
2026-05-06 17:09 36.72810 -76.56539 38064 ft 415 kts 227°
2026-05-06 17:09 36.68071 -76.60638 38042 ft 415 kts 227°
2026-05-06 17:10 36.63341 -76.64733 38041 ft 415 kts 227°
2026-05-06 17:10 36.58597 -76.68835 38043 ft 415 kts 227°
2026-05-06 17:11 36.53850 -76.72928 38034 ft 415 kts 227°
2026-05-06 17:11 36.49102 -76.77016 37998 ft 415 kts 227°
2026-05-06 17:12 36.44341 -76.81103 37993 ft 416 kts 227°
2026-05-06 17:12 36.39574 -76.85195 38005 ft 418 kts 227°
2026-05-06 17:13 36.34801 -76.89301 38033 ft 417 kts 228°
2026-05-06 17:13 36.30070 -76.93437 38045 ft 415 kts 228°
2026-05-06 17:14 36.25360 -76.97575 38023 ft 415 kts 228°
2026-05-06 17:14 36.20639 -77.01706 38027 ft 415 kts 228°
2026-05-06 17:15 36.15919 -77.05810 38029 ft 416 kts 228°
2026-05-06 17:15 36.11185 -77.09916 38030 ft 415 kts 228°
2026-05-06 17:16 36.06461 -77.14024 38043 ft 415 kts 228°
2026-05-06 17:16 36.01757 -77.18110 38012 ft 417 kts 228°
2026-05-06 17:17 35.97001 -77.22232 38022 ft 418 kts 228°
2026-05-06 17:17 35.92230 -77.26352 38064 ft 417 kts 229°
2026-05-06 17:18 35.87653 -77.30634 38070 ft 410 kts 232°
2026-05-06 17:18 35.83214 -77.35034 38058 ft 408 kts 232°
2026-05-06 17:19 35.78774 -77.39402 38044 ft 409 kts 232°
2026-05-06 17:19 35.74311 -77.43712 38043 ft 409 kts 231°
2026-05-06 17:20 35.69826 -77.48013 38047 ft 409 kts 231°
2026-05-06 17:20 35.65342 -77.52303 38046 ft 408 kts 231°
2026-05-06 17:21 35.60857 -77.56587 38042 ft 408 kts 231°
2026-05-06 17:21 35.56381 -77.60869 38017 ft 408 kts 231°
2026-05-06 17:22 35.51918 -77.65145 38042 ft 408 kts 231°
2026-05-06 17:22 35.47443 -77.69424 38049 ft 408 kts 231°
2026-05-06 17:23 35.42961 -77.73683 38048 ft 408 kts 231°
2026-05-06 17:23 35.38506 -77.77914 38059 ft 408 kts 231°
2026-05-06 17:24 35.34019 -77.82186 38066 ft 408 kts 231°
2026-05-06 17:24 35.29531 -77.86445 38061 ft 408 kts 231°
2026-05-06 17:25 35.25053 -77.90673 38072 ft 408 kts 231°
2026-05-06 17:25 35.20565 -77.94924 38073 ft 408 kts 231°
2026-05-06 17:26 35.16077 -77.99170 38068 ft 408 kts 231°
2026-05-06 17:26 35.11593 -78.03405 38059 ft 407 kts 231°
2026-05-06 17:27 35.07097 -78.07633 38063 ft 408 kts 231°
2026-05-06 17:27 35.02605 -78.11849 38067 ft 408 kts 231°
2026-05-06 17:28 34.98106 -78.16071 38067 ft 408 kts 231°
2026-05-06 17:28 34.93625 -78.20272 38084 ft 408 kts 231°
2026-05-06 17:29 34.89119 -78.24499 38053 ft 409 kts 231°
2026-05-06 17:29 34.84593 -78.28739 38059 ft 411 kts 231°
2026-05-06 17:30 34.80066 -78.32969 38060 ft 412 kts 231°
2026-05-06 17:30 34.76274 -78.36495 38063 ft 412 kts 231°
2026-05-06 17:31 34.71718 -78.40734 38069 ft 412 kts 231°
2026-05-06 17:31 34.67165 -78.44972 38056 ft 413 kts 231°
2026-05-06 17:32 34.62598 -78.49216 38063 ft 414 kts 231°
2026-05-06 17:32 34.58019 -78.53463 38071 ft 415 kts 231°
2026-05-06 17:33 34.53430 -78.57711 38077 ft 415 kts 231°
2026-05-06 17:33 34.48839 -78.61957 38079 ft 415 kts 231°
2026-05-06 17:34 34.44242 -78.66203 38059 ft 415 kts 231°
2026-05-06 17:34 34.39633 -78.70442 38089 ft 417 kts 230°
2026-05-06 17:35 34.34871 -78.74510 38104 ft 421 kts 228°
2026-05-06 17:35 34.30005 -78.78467 38078 ft 421 kts 227°
2026-05-06 17:36 34.22792 -78.84407 38074 ft 419 kts 228°
2026-05-06 17:36 34.17989 -78.88410 38043 ft 419 kts 228°
2026-05-06 17:37 34.13189 -78.92415 38061 ft 420 kts 228°
2026-05-06 17:37 34.08385 -78.96401 38064 ft 420 kts 228°
2026-05-06 17:38 34.03564 -79.00400 38080 ft 421 kts 228°
2026-05-06 17:38 33.98738 -79.04395 38092 ft 421 kts 228°
2026-05-06 17:39 33.93902 -79.08386 38081 ft 421 kts 228°
2026-05-06 17:39 33.89070 -79.12377 38098 ft 420 kts 228°
2026-05-06 17:40 33.84258 -79.16358 38104 ft 420 kts 228°
2026-05-06 17:40 33.79465 -79.20308 38103 ft 420 kts 228°
2026-05-06 17:41 33.74624 -79.24297 38102 ft 419 kts 228°
2026-05-06 17:41 33.69808 -79.28248 38063 ft 419 kts 228°
2026-05-06 17:42 33.65006 -79.32209 38069 ft 418 kts 229°
2026-05-06 17:42 33.60274 -79.36236 38083 ft 417 kts 229°
2026-05-06 17:43 33.55579 -79.40261 38090 ft 417 kts 229°
2026-05-06 17:43 33.50839 -79.44295 38110 ft 417 kts 229°
2026-05-06 17:44 33.46101 -79.48302 38091 ft 416 kts 229°
2026-05-06 17:44 33.41374 -79.52297 38098 ft 416 kts 229°
2026-05-06 17:45 33.36648 -79.56282 38104 ft 415 kts 229°
2026-05-06 17:45 33.31934 -79.60255 38104 ft 415 kts 229°
2026-05-06 17:46 33.27218 -79.64225 38102 ft 414 kts 229°
2026-05-06 17:46 33.22508 -79.68197 38074 ft 414 kts 229°
2026-05-06 17:47 33.17791 -79.72155 38084 ft 415 kts 229°
2026-05-06 17:47 33.13069 -79.76110 38088 ft 415 kts 229°
2026-05-06 17:48 33.08383 -79.80027 38094 ft 415 kts 228°
2026-05-06 17:48 33.03670 -79.83975 38109 ft 414 kts 229°
2026-05-06 17:49 32.98964 -79.87912 38116 ft 413 kts 228°
2026-05-06 17:49 32.94258 -79.91834 38122 ft 413 kts 228°
2026-05-06 17:50 32.89551 -79.95748 38124 ft 412 kts 228°
2026-05-06 17:50 32.84863 -79.99650 38118 ft 412 kts 228°
2026-05-06 17:51 32.80164 -80.03557 38118 ft 412 kts 228°
2026-05-06 17:51 32.75463 -80.07456 38082 ft 412 kts 228°
2026-05-06 17:52 32.70757 -80.11355 38090 ft 412 kts 228°
2026-05-06 17:52 32.66052 -80.15251 38104 ft 413 kts 228°
2026-05-06 17:53 32.61383 -80.19110 38111 ft 412 kts 228°
2026-05-06 17:53 32.56676 -80.22989 38120 ft 412 kts 228°
2026-05-06 17:54 32.51951 -80.26845 38115 ft 416 kts 225°
2026-05-06 17:54 32.46814 -80.30177 38080 ft 423 kts 221°
2026-05-06 17:55 32.41610 -80.33466 38089 ft 423 kts 221°
2026-05-06 17:55 32.36420 -80.36730 38096 ft 423 kts 221°
2026-05-06 17:56 32.31222 -80.40009 38105 ft 423 kts 221°
2026-05-06 17:56 32.26027 -80.43289 38109 ft 424 kts 221°
2026-05-06 17:57 32.20819 -80.46568 38081 ft 424 kts 221°
2026-05-06 17:57 32.15602 -80.49836 38089 ft 425 kts 221°
2026-05-06 17:58 32.10393 -80.53103 38099 ft 425 kts 221°
2026-05-06 17:58 32.05171 -80.56380 38097 ft 425 kts 220°
2026-05-06 17:59 31.99952 -80.59653 38109 ft 425 kts 220°
2026-05-06 17:59 31.94738 -80.62916 38093 ft 424 kts 220°
2026-05-06 18:00 31.89518 -80.66172 38099 ft 425 kts 220°
2026-05-06 18:00 31.84300 -80.69430 38104 ft 425 kts 220°
2026-05-06 18:01 31.79079 -80.72696 38111 ft 425 kts 220°
2026-05-06 18:01 31.73890 -80.75935 38114 ft 425 kts 220°
2026-05-06 18:02 31.68647 -80.79186 38087 ft 426 kts 219°
2026-05-06 18:02 31.63409 -80.82434 38093 ft 426 kts 220°
2026-05-06 18:03 31.58167 -80.85681 38103 ft 426 kts 219°
2026-05-06 18:03 31.52919 -80.88936 38106 ft 427 kts 219°
2026-05-06 18:04 31.47671 -80.92186 38102 ft 426 kts 219°
2026-05-06 18:04 31.42417 -80.95424 38086 ft 426 kts 219°
2026-05-06 18:05 31.37167 -80.98663 38094 ft 426 kts 219°
2026-05-06 18:05 31.31915 -81.01898 38101 ft 427 kts 219°
2026-05-06 18:06 31.26559 -81.04972 38103 ft 438 kts 211°
2026-05-06 18:06 31.23565 -81.05914 38106 ft 453 kts 200°
2026-05-06 18:06 31.20377 -81.06249 38068 ft 467 kts 191°
2026-05-06 18:07 31.13865 -81.06370 38075 ft 469 kts 191°
2026-05-06 18:07 31.07354 -81.06480 38086 ft 469 kts 191°
2026-05-06 18:08 31.00826 -81.06611 38095 ft 469 kts 191°
2026-05-06 18:08 30.94289 -81.06752 38108 ft 470 kts 191°
2026-05-06 18:09 30.87750 -81.06897 38095 ft 470 kts 191°
2026-05-06 18:09 30.81243 -81.07036 38105 ft 470 kts 191°
2026-05-06 18:10 30.74706 -81.07164 38105 ft 470 kts 191°
2026-05-06 18:10 30.68152 -81.07294 38105 ft 470 kts 191°
2026-05-06 18:11 30.62709 -81.07405 38078 ft 470 kts 191°
2026-05-06 18:11 30.55087 -81.07759 38094 ft 468 kts 193°
2026-05-06 18:12 30.48596 -81.08227 38106 ft 468 kts 193°
2026-05-06 18:12 30.42109 -81.08668 38117 ft 468 kts 193°
2026-05-06 18:13 30.35593 -81.09059 38115 ft 469 kts 193°
2026-05-06 18:13 30.29080 -81.09434 38112 ft 469 kts 193°
2026-05-06 18:14 30.22562 -81.09823 38119 ft 469 kts 193°
2026-05-06 18:14 30.16088 -81.10211 38119 ft 468 kts 193°
2026-05-06 18:15 30.09585 -81.10598 38102 ft 468 kts 193°
2026-05-06 18:15 30.03081 -81.10986 38099 ft 468 kts 192°
2026-05-06 18:16 29.97673 -81.11307 38108 ft 468 kts 192°
2026-05-06 18:16 29.91160 -81.11694 38113 ft 468 kts 192°
2026-05-06 18:17 29.84631 -81.11962 38124 ft 476 kts 186°
2026-05-06 18:17 29.81307 -81.11474 38096 ft 487 kts 176°
2026-05-06 18:17 29.78023 -81.10369 38096 ft 497 kts 166°
2026-05-06 18:18 29.71625 -81.07233 38103 ft 500 kts 163°
2026-05-06 18:18 29.65220 -81.04097 38109 ft 500 kts 164°
2026-05-06 18:19 29.58802 -81.00966 38115 ft 501 kts 164°
2026-05-06 18:19 29.52400 -80.97839 38117 ft 501 kts 164°
2026-05-06 18:20 29.45992 -80.94712 38102 ft 500 kts 163°
2026-05-06 18:20 29.39584 -80.91590 38112 ft 500 kts 163°
2026-05-06 18:21 29.33175 -80.88472 38122 ft 501 kts 163°
2026-05-06 18:21 29.26758 -80.85350 38115 ft 501 kts 163°
2026-05-06 18:22 29.20339 -80.82231 38102 ft 501 kts 163°
2026-05-06 18:22 29.13961 -80.79142 38113 ft 500 kts 163°
2026-05-06 18:23 29.07543 -80.76044 38117 ft 500 kts 163°
2026-05-06 18:23 29.01131 -80.72957 38118 ft 500 kts 163°
2026-05-06 18:24 28.94720 -80.69882 38113 ft 499 kts 164°
2026-05-06 18:24 28.88275 -80.66967 38095 ft 498 kts 165°
2026-05-06 18:25 28.81807 -80.64133 38100 ft 498 kts 165°
2026-05-06 18:25 28.75348 -80.61275 38103 ft 498 kts 164°
2026-05-06 18:26 28.68897 -80.58385 38100 ft 498 kts 164°
2026-05-06 18:26 28.62445 -80.55505 38069 ft 498 kts 164°
2026-05-06 18:27 28.55991 -80.52633 38085 ft 498 kts 164°
2026-05-06 18:27 28.49577 -80.49778 38088 ft 498 kts 164°
2026-05-06 18:28 28.43126 -80.46917 38089 ft 498 kts 164°
2026-05-06 18:28 28.36666 -80.44048 38091 ft 498 kts 164°
2026-05-06 18:29 28.30219 -80.41195 38089 ft 498 kts 164°
2026-05-06 18:29 28.23794 -80.38370 38104 ft 497 kts 164°
2026-05-06 18:30 28.17338 -80.35535 38116 ft 497 kts 164°
2026-05-06 18:30 28.10893 -80.32693 38118 ft 497 kts 164°
2026-05-06 18:31 28.07670 -80.31288 38008 ft 495 kts 165°
2026-05-06 18:31 28.04438 -80.29953 37366 ft 494 kts 166°
2026-05-06 18:31 28.01190 -80.28685 36666 ft 494 kts 166°
2026-05-06 18:31 27.97929 -80.27456 36016 ft 494 kts 167°
2026-05-06 18:32 27.94660 -80.26234 35357 ft 495 kts 166°
2026-05-06 18:32 27.91389 -80.24997 34677 ft 497 kts 166°
2026-05-06 18:32 27.88104 -80.23736 33985 ft 499 kts 166°
2026-05-06 18:32 27.84822 -80.22458 33196 ft 500 kts 165°
2026-05-06 18:33 27.81530 -80.21167 32402 ft 502 kts 165°
2026-05-06 18:33 27.78227 -80.19866 31614 ft 503 kts 165°
2026-05-06 18:33 27.74916 -80.18566 30816 ft 505 kts 165°
2026-05-06 18:33 27.71592 -80.17267 29986 ft 507 kts 165°
2026-05-06 18:34 27.68301 -80.15986 29192 ft 505 kts 164°
2026-05-06 18:34 27.64997 -80.14703 28538 ft 500 kts 164°
2026-05-06 18:34 27.61721 -80.13435 27884 ft 495 kts 164°
2026-05-06 18:34 27.58492 -80.12157 27256 ft 490 kts 163°
2026-05-06 18:35 27.55301 -80.10853 26635 ft 486 kts 162°
2026-05-06 18:35 27.52145 -80.09535 26022 ft 481 kts 162°
2026-05-06 18:35 27.49029 -80.08225 25428 ft 477 kts 162°
2026-05-06 18:35 27.45922 -80.06921 24850 ft 472 kts 162°
2026-05-06 18:36 27.42872 -80.05651 24341 ft 468 kts 162°
2026-05-06 18:36 27.39811 -80.04389 24142 ft 468 kts 162°
2026-05-06 18:36 27.36734 -80.03194 24043 ft 466 kts 164°
2026-05-06 18:36 27.33628 -80.02152 24108 ft 467 kts 167°
2026-05-06 18:37 27.30482 -80.01207 24115 ft 467 kts 168°
2026-05-06 18:37 27.27373 -80.00327 24109 ft 452 kts 168°
2026-05-06 18:37 27.24347 -79.99459 24020 ft 446 kts 167°
2026-05-06 18:37 27.21376 -79.98503 23800 ft 443 kts 165°
2026-05-06 18:38 27.18480 -79.97479 23570 ft 442 kts 164°
2026-05-06 18:38 27.15567 -79.96394 23262 ft 440 kts 163°
2026-05-06 18:38 27.12679 -79.95301 22700 ft 437 kts 163°
2026-05-06 18:38 27.09817 -79.94226 22143 ft 432 kts 163°
2026-05-06 18:39 27.06972 -79.93174 21601 ft 428 kts 163°
2026-05-06 18:39 27.04160 -79.92106 21060 ft 425 kts 162°
2026-05-06 18:39 27.01385 -79.91002 20528 ft 422 kts 161°
2026-05-06 18:40 26.95911 -79.88746 19457 ft 416 kts 160°
2026-05-06 18:40 26.93200 -79.87630 18934 ft 414 kts 160°
2026-05-06 18:40 26.90502 -79.86530 18470 ft 410 kts 160°
2026-05-06 18:40 26.87859 -79.85461 18227 ft 399 kts 160°
2026-05-06 18:41 26.85256 -79.84413 17748 ft 395 kts 160°
2026-05-06 18:41 26.82692 -79.83385 17269 ft 392 kts 160°
2026-05-06 18:41 26.80136 -79.82359 16795 ft 388 kts 160°
2026-05-06 18:41 26.77604 -79.81344 16331 ft 385 kts 159°
2026-05-06 18:42 26.75093 -79.80337 15890 ft 381 kts 159°
2026-05-06 18:42 26.72578 -79.79429 15449 ft 379 kts 167°
2026-05-06 18:42 26.69973 -79.79115 15075 ft 374 kts 181°
2026-05-06 18:42 26.67400 -79.79447 14610 ft 372 kts 194°
2026-05-06 18:43 26.64952 -79.80351 14205 ft 368 kts 201°
2026-05-06 18:43 26.62587 -79.81326 13902 ft 356 kts 201°
2026-05-06 18:43 26.60287 -79.82268 12992 ft 349 kts 201°
2026-05-06 18:43 26.58035 -79.83188 12116 ft 342 kts 201°
2026-05-06 18:44 26.55848 -79.84077 11321 ft 334 kts 200°
2026-05-06 18:44 26.53709 -79.84987 10650 ft 322 kts 202°
2026-05-06 18:44 26.51685 -79.85921 10349 ft 312 kts 204°
2026-05-06 18:44 26.49694 -79.86873 10128 ft 310 kts 204°
2026-05-06 18:45 26.47724 -79.87821 9867 ft 307 kts 204°
2026-05-06 18:45 26.45767 -79.88759 9490 ft 304 kts 204°
2026-05-06 18:45 26.43827 -79.89685 9110 ft 302 kts 204°
2026-05-06 18:45 26.42523 -79.90304 8853 ft 301 kts 204°
2026-05-06 18:46 26.39983 -79.91502 8347 ft 297 kts 203°
2026-05-06 18:46 26.38115 -79.92428 8049 ft 293 kts 209°
2026-05-06 18:46 26.36348 -79.93566 7981 ft 295 kts 211°
2026-05-06 18:46 26.34569 -79.94712 7639 ft 293 kts 211°
2026-05-06 18:47 26.32803 -79.95841 7427 ft 291 kts 210°
2026-05-06 18:47 26.31044 -79.96963 7236 ft 291 kts 210°
2026-05-06 18:47 26.29296 -79.98082 7047 ft 289 kts 210°
2026-05-06 18:47 26.27561 -79.99194 6864 ft 287 kts 210°
2026-05-06 18:48 26.25833 -80.00302 6674 ft 286 kts 211°
2026-05-06 18:48 26.24111 -80.01408 6483 ft 285 kts 211°
2026-05-06 18:48 26.22403 -80.02505 6288 ft 282 kts 210°
2026-05-06 18:48 26.20718 -80.03588 6107 ft 279 kts 210°
2026-05-06 18:49 26.19150 -80.04793 5923 ft 277 kts 222°
2026-05-06 18:49 26.17913 -80.06416 5749 ft 275 kts 238°
2026-05-06 18:49 26.17112 -80.08343 5556 ft 274 kts 251°
2026-05-06 18:49 26.16517 -80.10357 5375 ft 273 kts 251°
2026-05-06 18:50 26.15921 -80.12350 5191 ft 271 kts 251°
2026-05-06 18:50 26.15327 -80.14337 5015 ft 270 kts 252°
2026-05-06 18:50 26.15022 -80.16393 4835 ft 270 kts 267°
2026-05-06 18:50 26.15033 -80.18486 4657 ft 271 kts 270°
2026-05-06 18:51 26.15049 -80.20585 4482 ft 271 kts 270°
2026-05-06 18:51 26.15060 -80.22679 4307 ft 271 kts 269°
2026-05-06 18:51 26.15066 -80.24761 4139 ft 270 kts 269°
2026-05-06 18:51 26.15076 -80.26840 4027 ft 264 kts 270°
2026-05-06 18:52 26.15095 -80.28824 3970 ft 250 kts 270°
2026-05-06 18:52 26.15104 -80.30691 3766 ft 232 kts 269°
2026-05-06 18:52 26.14978 -80.32438 3315 ft 222 kts 251°
2026-05-06 18:52 26.14137 -80.33791 3006 ft 206 kts 213°
2026-05-06 18:53 26.12845 -80.34248 3020 ft 189 kts 180°
2026-05-06 18:53 26.11601 -80.34176 3013 ft 169 kts 172°
2026-05-06 18:53 26.10564 -80.33734 2995 ft 154 kts 149°
2026-05-06 18:53 26.09637 -80.33188 2999 ft 149 kts 152°
2026-05-06 18:54 26.08724 -80.32661 2956 ft 149 kts 147°
2026-05-06 18:54 26.08007 -80.31810 2685 ft 155 kts 118°
2026-05-06 18:54 26.07761 -80.30644 2448 ft 155 kts 92°
2026-05-06 18:54 26.07761 -80.29445 2253 ft 155 kts 91°
2026-05-06 18:55 26.07754 -80.28265 2048 ft 153 kts 90°
2026-05-06 18:55 26.07749 -80.27108 1875 ft 144 kts 91°
2026-05-06 18:55 26.07743 -80.26044 1680 ft 134 kts 91°
2026-05-06 18:55 26.07738 -80.25017 1513 ft 131 kts 89°
2026-05-06 18:56 26.07733 -80.24007 1330 ft 130 kts 90°
2026-05-06 18:56 26.07728 -80.23004 1173 ft 129 kts 92°
2026-05-06 18:56 26.07723 -80.22007 1012 ft 129 kts 90°
2026-05-06 18:56 26.07707 -80.21014 855 ft 127 kts 90°
2026-05-06 18:57 26.07709 -80.20031 674 ft 127 kts 88°
2026-05-06 18:57 26.07705 -80.19040 484 ft 128 kts 90°
2026-05-06 18:57 26.07712 -80.18054 369 ft 126 kts 90°
2026-05-06 18:57 26.07699 -80.17073 199 ft 126 kts 89°
2026-05-06 18:58 26.07695 -80.16109 26 ft 120 kts 90°
2026-05-06 18:58 26.07688 -80.15314 16 ft 74 kts 90°
2026-05-06 18:58 26.07684 -80.14925 18 ft 35 kts 91°
2026-05-06 18:58 26.07658 -80.14669 19 ft 31 kts 104°
2026-05-06 18:59 26.07606 -80.14552 18 ft 15 kts 123°
2026-05-06 18:59 26.07549 -80.14508 17 ft 9 kts 176°
2026-05-06 18:59 26.07496 -80.14486 16 ft 8 kts 124°
2026-05-06 18:59 26.07487 -80.14419 16 ft 9 kts 92°
2026-05-06 19:00 26.07487 -80.14341 16 ft 11 kts 89°
2026-05-06 19:00 26.07486 -80.14256 16 ft 12 kts 92°
2026-05-06 19:00 26.07438 -80.14191 16 ft 12 kts 165°
2026-05-06 19:00 26.07382 -80.14188 17 ft 12 kts 180°
2026-05-06 19:01 26.07304 -80.14194 8 ft 3 kts 204°
2026-05-06 19:01 26.07296 -80.14216 16 ft 6 kts 262°
2026-05-06 19:01 26.07295 -80.14246 16 ft 2 kts 269°
2026-05-06 19:01 26.07295 -80.14251 16 ft 0 kts 269°
2026-05-06 19:12 26.07295 -80.14250 16 ft 0 kts 269°